User: anonymous   Login
Location: Unspecified
(0.0000°N, 0.0000°E)
Time: 21:44:18
(UTC+00:00)
Language:

PANSAT - Orbit

View from above orbital plane
View from above orbital plane
View from above satellite
View from above satellite

Ground track
Ground track

The orbit data is extracted from the following two-line orbital elements,

1 25520U 98064B   18048.84679745  .00000794  00000-0  19860-4 0  9990
2 25520  28.4547 110.7449 0005031 204.5948 155.4408 15.28720619 71919
Epoch (UTC): 17 February 2018 20:19:23
Eccentricity: 0.0005031
inclination: 28.4547°
perigee height: 476 km
apogee height: 483 km
right ascension of ascending node: 110.7449°
argument of perigee: 204.5948°
revolutions per day: 15.28720619
mean anomaly at epoch: 155.4408°
orbit number at epoch: 7191

The dashed part of the orbit path shows where the satellite is in the earth's shadow,  

DLR